Weather History for Tekamah, NE

Change the Weather History Date:

Monday, March 24, 2014

  Actual Average Record
Temperature  
Mean Temperature 33 °F -  
Max Temperature 46 °F 51 °F 86 °F (1967)
Min Temperature 21 °F 28 °F 4 °F (1974)
Degree Days  
Heating Degree Days 32    
Moisture  
Dew Point 12 °F    
Average Humidity 42    
Maximum Humidity 63    
Minimum Humidity 30    
Precipitation  
Precipitation 0.00 in - - ()
Sea Level Pressure  
Sea Level Pressure 30.26 in    
Wind  
Wind Speed 11 mph (North)    
Max Wind Speed 25 mph    
Max Gust Speed 31 mph    
Visibility 10 miles    
Events      
Averages and records for this station are not official NWS values.
T = Trace of Precipitation, MM = Missing Value Source: NWS Daily Summary

Daily Weather History Graph

Daily Weather History Graph

Search for Another Location

Airport:

Trip Planner

Search our weather history database for the weather conditions in past years. The results will help you decide how hot, cold, wet, or windy it might be!

Date:

Astronomy

Mar. 24, 2014 Rise Set
Actual Time 7:21 AM CDT 7:41 PM CDT
Civil Twilight 6:53 AM CDT 8:09 PM CDT
Nautical Twilight 6:20 AM CDT 8:42 PM CDT
Astronomical Twilight 5:47 AM CDT 9:15 PM CDT
Moon 2:56 AM CDT (3/24) 1:03 PM CDT (3/24)
Length of Visible Light 13h 15m
Length of Day
12h 20m
Last Quarter, 43% of the Moon is Illuminated
Mar 24
Last Quarter
Mar 30
New
Apr 7
First Quarter
Apr 15
Full
Apr 22
Last Quarter

Hourly Weather History & Observations

Time (CDT) Temp. Windchill Dew Point Humidity Pressure Visibility Wind Dir Wind Speed Gust Speed Precip Events Conditions
12:54 AM 32.0 °F 23.6 °F 10.0 °F 40% 30.30 in 10.0 mi SE 10.4 mph - N/A   Overcast
1:54 AM 32.0 °F 23.6 °F 10.0 °F 40% 30.29 in 10.0 mi SE 10.4 mph - N/A   Overcast
2:54 AM 32.0 °F 24.2 °F 10.0 °F 40% 30.30 in 10.0 mi SE 9.2 mph - N/A   Overcast
3:54 AM 30.9 °F 24.3 °F 10.0 °F 42% 30.28 in 10.0 mi ESE 6.9 mph - N/A   Overcast
4:54 AM 30.9 °F 21.7 °F 10.0 °F 42% 30.27 in 10.0 mi SE 11.5 mph - N/A   Overcast
5:54 AM 30.0 °F 21.7 °F 10.0 °F 43% 30.27 in 10.0 mi ESE 9.2 mph - N/A   Overcast
6:54 AM 30.0 °F 21.1 °F 10.0 °F 43% 30.27 in 10.0 mi SE 10.4 mph - N/A   Overcast
7:54 AM 30.0 °F 20.5 °F 10.9 °F 45% 30.27 in 10.0 mi SE 11.5 mph - N/A   Overcast
8:54 AM 30.9 °F 21.2 °F 10.9 °F 43% 30.27 in 10.0 mi SSE 12.7 mph - N/A   Overcast
9:54 AM 34.0 °F 28.0 °F 12.0 °F 40% 30.27 in 10.0 mi South 6.9 mph - N/A   Mostly Cloudy
10:54 AM 36.0 °F 33.3 °F 14.0 °F 41% 30.27 in 10.0 mi Variable 3.5 mph - N/A   Clear
11:54 AM 39.9 °F 33.4 °F 12.9 °F 33% 30.27 in 10.0 mi NNW 10.4 mph - N/A   Clear
12:54 PM 42.1 °F 35.7 °F 14.0 °F 32% 30.25 in 10.0 mi NNE 11.5 mph - N/A   Clear
1:54 PM 45.0 °F 39.7 °F 16.0 °F 31% 30.24 in 10.0 mi NNW 10.4 mph - N/A   Clear
2:54 PM 43.0 °F 35.4 °F 12.9 °F 30% 30.22 in 10.0 mi NNW 16.1 mph - N/A   Overcast
3:54 PM 43.0 °F 34.5 °F 12.9 °F 30% 30.22 in 10.0 mi NNW 19.6 mph 28.8 mph N/A   Overcast
4:54 PM 42.1 °F 32.1 °F 17.1 °F 37% 30.23 in 10.0 mi NNW 25.3 mph 31.1 mph N/A   Overcast
5:54 PM 39.0 °F 29.3 °F 16.0 °F 39% 30.25 in 10.0 mi NNW 19.6 mph - N/A   Mostly Cloudy
6:54 PM 37.0 °F 26.2 °F 17.1 °F 44% 30.26 in 10.0 mi NNW 21.9 mph - N/A   Partly Cloudy
7:54 PM 32.0 °F 23.0 °F 12.0 °F 44% 30.26 in 10.0 mi NW 11.5 mph - N/A   Clear
8:54 PM 27.0 °F 18.7 °F 12.0 °F 53% 30.26 in 10.0 mi WNW 8.1 mph - N/A   Clear
9:54 PM 25.0 °F 16.3 °F 12.9 °F 60% 30.26 in 10.0 mi WNW 8.1 mph - N/A   Clear
10:54 PM 21.0 °F 10.6 °F 10.0 °F 63% 30.26 in 10.0 mi West 9.2 mph - N/A   Clear
11:54 PM 28.9 °F 17.3 °F 15.1 °F 56% 30.27 in 10.0 mi NW 16.1 mph - N/A   Overcast